| time (UTC) | temp F | wind direction | speed MPH | gust MPH | rain 1hr in | rain 24hr in | rain mn in | humidity % | barometer mb |
| 20260831101522 | 65 | 135 | 2.0 | 6.0 | 0.00 | 0.00 | 0.00 | 1 | 1003.5 |
| 20260831100522 | 66 | 135 | 2.0 | 6.0 | 0.00 | 0.00 | 0.00 | 1 | 1003.5 |
| 20260831095523 | 65 | 135 | 2.0 | 8.0 | 0.00 | 0.00 | 0.00 | 1 | 1003.6 |
| 20260831094522 | 64 | 158 | 1.0 | 4.0 | 0.00 | 0.00 | 0.00 | 1 | 1003.7 |
| 20260831093522 | 64 | 135 | 2.0 | 4.0 | 0.00 | 0.00 | 0.00 | 1 | 1003.5 |
| 20260831092522 | 64 | 113 | 3.0 | 7.0 | 0.00 | 0.00 | 0.00 | 1 | 1003.6 |
| 20260831091522 | 64 | 135 | 2.0 | 5.0 | 0.00 | 0.00 | 0.00 | 1 | 1003.6 |
| 20260831090522 | 64 | 113 | 3.0 | 9.0 | 0.00 | 0.00 | 0.00 | 1 | 1003.6 |
| 20260831085522 | 64 | 113 | 1.0 | 5.0 | 0.00 | 0.00 | 0.00 | 1 | 1003.6 |
| 20260831084522 | 64 | 158 | 2.0 | 7.0 | 0.00 | 0.00 | 0.00 | 1 | 1003.7 |
| 20260831083522 | 64 | 135 | 2.0 | 8.0 | 0.00 | 0.00 | 0.00 | 1 | 1003.7 |
| 20260831082522 | 64 | 135 | 3.0 | 7.0 | 0.00 | 0.00 | 0.00 | 1 | 1003.9 |
| 20260831081542 | 64 | 135 | 1.0 | 4.0 | 0.00 | 0.00 | 0.00 | 1 | 1003.9 |
| 20260831061522 | 62 | 135 | 4.0 | 8.0 | 0.00 | 0.00 | 0.00 | 1 | 1004.2 |
| 20260831060522 | 62 | 180 | 3.0 | 9.0 | 0.00 | 0.00 | 0.00 | 1 | 1004.3 |
| 20260831055522 | 62 | 135 | 2.0 | 9.0 | 0.00 | 0.00 | 0.00 | 1 | 1004.3 |
| 20260831054522 | 62 | 158 | 2.0 | 8.0 | 0.00 | 0.00 | 0.00 | 1 | 1004.2 |
| 20260831053522 | 62 | 158 | 2.0 | 5.0 | 0.00 | 0.00 | 0.00 | 1 | 1004.3 |
| 20260831052522 | 62 | 135 | 3.0 | 8.0 | 0.00 | 0.00 | 0.00 | 1 | 1004.4 |
| 20260831051521 | 62 | 158 | 2.0 | 8.0 | 0.00 | 0.00 | 0.00 | 1 | 1004.4 |
| 20260831050522 | 61 | 158 | 3.0 | 7.0 | 0.00 | 0.00 | 0.00 | 1 | 1004.5 |
| 20260831045522 | 61 | 135 | 3.0 | 8.0 | 0.00 | 0.00 | 0.00 | 1 | 1004.5 |
| 20260831044522 | 61 | 135 | 4.0 | 9.0 | 0.00 | 0.00 | 0.00 | 1 | 1004.6 |
| 20260831043522 | 61 | 135 | 4.0 | 9.0 | 0.00 | 0.00 | 0.00 | 1 | 1004.7 |
| 20260831042522 | 61 | 135 | 4.0 | 9.0 | 0.00 | 0.00 | 0.00 | 1 | 1004.8 |
| 20260831041522 | 61 | 158 | 4.0 | 9.0 | 0.00 | 0.00 | 0.00 | 1 | 1004.9 |
| 20260831040542 | 61 | 158 | 2.0 | 6.0 | 0.00 | 0.00 | 0.00 | 1 | 1004.9 |
| 20260831030520 | 61 | 158 | 4.0 | 8.0 | 0.00 | 0.00 | 0.00 | 1 | 1005.2 |
| 20260831025520 | 61 | 158 | 3.0 | 9.0 | 0.00 | 0.00 | 0.00 | 1 | 1005.2 |
| 20260831024520 | 61 | 158 | 4.0 | 8.0 | 0.00 | 0.00 | 0.00 | 1 | 1005.3 |
| 20260831023520 | 61 | 135 | 5.0 | 10.0 | 0.00 | 0.00 | 0.00 | 1 | 1005.3 |
| 20260831022520 | 61 | 135 | 5.0 | 9.0 | 0.00 | 0.00 | 0.00 | 1 | 1005.3 |
| 20260831021520 | 61 | 158 | 4.0 | 10.0 | 0.00 | 0.00 | 0.00 | 1 | 1005.3 |
| 20260831020540 | 60 | 135 | 6.0 | 12.0 | 0.00 | 0.00 | 0.00 | 1 | 1005.4 |
| 20260831000520 | 61 | 158 | 1.0 | 5.0 | 0.00 | 0.00 | 0.00 | 1 | 1006.5 |
| 20260830235520 | 60 | 0.0 | 0.0 | 0.00 | 0.00 | 0.00 | 1 | 1006.5 | |
| 20260830234520 | 60 | 0.0 | 0.0 | 0.00 | 0.00 | 0.00 | 1 | 1006.7 | |
| 20260830233520 | 60 | 0.0 | 0.0 | 0.00 | 0.00 | 0.00 | 1 | 1006.7 | |
| 20260830232520 | 60 | 0.0 | 0.0 | 0.00 | 0.00 | 0.00 | 1 | 1006.8 | |
| 20260830231520 | 60 | 0.0 | 0.0 | 0.00 | 0.00 | 0.00 | 1 | 1006.8 | |
| 20260830230540 | 60 | 0.0 | 3.0 | 0.00 | 0.00 | 0.00 | 1 | 1006.9 | |
| 20260830210520 | 60 | 248 | 1.0 | 9.0 | 0.00 | 0.01 | 0.00 | 1 | 1007.0 |
| 20260830205520 | 60 | 203 | 2.0 | 10.0 | 0.00 | 0.01 | 0.01 | 1 | 1007.0 |
| 20260830204520 | 60 | 203 | 2.0 | 10.0 | 0.00 | 0.01 | 0.01 | 1 | 1006.8 |
| 20260830203520 | 60 | 225 | 1.0 | 5.0 | 0.00 | 0.01 | 0.01 | 1 | 1006.8 |
| 20260830202520 | 60 | 0.0 | 3.0 | 0.00 | 0.01 | 0.01 | 1 | 1006.7 | |
| 20260830201520 | 60 | 0.0 | 4.0 | 0.00 | 0.01 | 0.01 | 1 | 1006.6 | |
| 20260830200520 | 60 | 203 | 1.0 | 6.0 | 0.00 | 0.01 | 0.01 | 1 | 1006.6 |
| 20260830195520 | 60 | 203 | 1.0 | 4.0 | 0.00 | 0.01 | 0.01 | 1 | 1006.7 |
| 20260830194520 | 60 | 225 | 1.0 | 5.0 | 0.00 | 0.01 | 0.01 | 1 | 1006.6 |
| 20260830193520 | 60 | 203 | 2.0 | 6.0 | 0.00 | 0.01 | 0.01 | 1 | 1006.5 |
| 20260830192520 | 60 | 203 | 1.0 | 9.0 | 0.00 | 0.01 | 0.01 | 1 | 1006.5 |
| 20260830191520 | 60 | 248 | 1.0 | 6.0 | 0.00 | 0.01 | 0.01 | 1 | 1006.4 |
| 20260830190520 | 60 | 225 | 1.0 | 4.0 | 0.00 | 0.01 | 0.01 | 1 | 1006.4 |
| 20260830185520 | 60 | 225 | 2.0 | 7.0 | 0.00 | 0.01 | 0.01 | 1 | 1006.4 |
| 20260830184521 | 61 | 203 | 1.0 | 5.0 | 0.00 | 0.01 | 0.01 | 1 | 1006.3 |
| 20260830183520 | 61 | 0.0 | 0.0 | 0.00 | 0.01 | 0.01 | 1 | 1006.3 | |
| 20260830182520 | 61 | 0.0 | 4.0 | 0.00 | 0.01 | 0.01 | 1 | 1006.3 | |
| 20260830181520 | 61 | 0.0 | 0.0 | 0.00 | 0.01 | 0.01 | 1 | 1006.2 | |
| 20260830180520 | 62 | 0.0 | 0.0 | 0.00 | 0.01 | 0.01 | 1 | 1006.2 | |
| 20260830175600 | 62 | 0.0 | 0.0 | 0.00 | 0.01 | 0.01 | 1 | 1006.1 | |
| 20260830155520 | 64 | 180 | 1.0 | 6.0 | 0.00 | 0.01 | 0.01 | 1 | 1005.7 |
| 20260830154520 | 64 | 158 | 1.0 | 7.0 | 0.00 | 0.01 | 0.01 | 1 | 1005.7 |
| 20260830153520 | 64 | 158 | 2.0 | 7.0 | 0.00 | 0.01 | 0.01 | 1 | 1005.6 |
| 20260830152520 | 64 | 135 | 2.0 | 7.0 | 0.00 | 0.01 | 0.01 | 1 | 1005.6 |
| 20260830151520 | 64 | 158 | 1.0 | 8.0 | 0.00 | 0.01 | 0.01 | 1 | 1005.6 |
| 20260830150520 | 64 | 158 | 3.0 | 6.0 | 0.00 | 0.01 | 0.01 | 1 | 1005.8 |
| 20260830145520 | 64 | 158 | 2.0 | 6.0 | 0.00 | 0.01 | 0.01 | 1 | 1005.9 |
| 20260830144520 | 64 | 180 | 2.0 | 8.0 | 0.00 | 0.01 | 0.01 | 1 | 1005.8 |
| 20260830143520 | 64 | 203 | 2.0 | 7.0 | 0.00 | 0.01 | 0.01 | 1 | 1005.8 |
| 20260830142520 | 64 | 158 | 1.0 | 5.0 | 0.00 | 0.01 | 0.01 | 1 | 1005.8 |
| 20260830141520 | 64 | 135 | 2.0 | 5.0 | 0.00 | 0.01 | 0.01 | 1 | 1005.9 |
| 20260830140520 | 64 | 135 | 3.0 | 8.0 | 0.00 | 0.01 | 0.01 | 1 | 1005.9 |
| 20260830135520 | 64 | 135 | 4.0 | 10.0 | 0.00 | 0.01 | 0.01 | 1 | 1005.9 |
| 20260830134520 | 64 | 135 | 4.0 | 9.0 | 0.00 | 0.01 | 0.01 | 1 | 1006.0 |
| 20260830133520 | 64 | 158 | 4.0 | 10.0 | 0.00 | 0.01 | 0.01 | 1 | 1006.0 |
| 20260830132520 | 64 | 135 | 4.0 | 10.0 | 0.00 | 0.01 | 0.01 | 1 | 1005.9 |
| 20260830131520 | 64 | 158 | 2.0 | 6.0 | 0.00 | 0.01 | 0.01 | 1 | 1005.9 |
| 20260830130520 | 64 | 0.0 | 4.0 | 0.00 | 0.01 | 0.01 | 1 | 1005.9 | |
| 20260830125520 | 64 | 0.0 | 4.0 | 0.00 | 0.01 | 0.01 | 1 | 1005.9 | |
| 20260830124520 | 64 | 0.0 | 0.0 | 0.00 | 0.01 | 0.01 | 1 | 1006.0 | |
| 20260830123520 | 63 | 0.0 | 0.0 | 0.00 | 0.01 | 0.01 | 1 | 1006.0 | |
| 20260830122520 | 63 | 0.0 | 1.0 | 0.00 | 0.01 | 0.01 | 1 | 1006.0 | |
| 20260830121520 | 64 | 158 | 2.0 | 6.0 | 0.00 | 0.01 | 0.01 | 3 | 1006.0 |
| 20260830120520 | 64 | 135 | 3.0 | 8.0 | 0.00 | 0.01 | 0.01 | 12 | 1006.0 |
| 20260830115520 | 64 | 158 | 1.0 | 6.0 | 0.00 | 0.01 | 0.01 | 18 | 1006.0 |
| 20260830114520 | 64 | 135 | 3.0 | 8.0 | 0.00 | 0.01 | 0.01 | 28 | 1006.1 |
| 20260830113540 | 65 | 180 | 2.0 | 7.0 | 0.00 | 0.01 | 0.01 | 38 | 1006.2 |
| 20260830103520 | 64 | 135 | 3.0 | 9.0 | 0.00 | 0.01 | 0.01 | 12 | 1006.3 |
| 20260830102520 | 64 | 135 | 5.0 | 9.0 | 0.00 | 0.01 | 0.01 | 7 | 1006.4 |